| DS18B20 | SHTC3 | PZEM-004T | WiFi | ||||||||
|---|---|---|---|---|---|---|---|---|---|---|---|
| ID | Date d/m/Y & Time | data1 สูง | data2 ต่ำ | data3 นอก | temp pcb | hum pcb | Volt | Amp | Watt | rssi | Time |
| 6785 | 26/07/2026 15:28:49 | 32.8  | 31.6  | 33.0  | 33.5  | 63.1  | 231.0  | 0.04  | 4.6  | -79  | 15:28 |
| 6784 | 26/07/2026 15:24:06 | 32.8  | 31.5  | 33.0  | 33.7  | 63.0  | 230.8  | 0.04  | 4.5  | -78  | 15:24 |
| 6783 | 26/07/2026 15:19:23 | 32.7  | 31.5  | 33.0  | 33.5  | 63.0  | 230.8  | 0.04  | 4.6  | -77  | 15:19 |
| 6782 | 26/07/2026 15:14:40 | 32.7  | 31.4  | 33.0  | 33.6  | 63.1  | 232.0  | 0.04  | 4.6  | -78  | 15:14 |
| 6781 | 26/07/2026 15:09:57 | 32.7  | 31.4  | 32.9  | 33.6  | 63.0  | 232.3  | 0.04  | 4.6  | -77  | 15:09 |
| 6780 | 26/07/2026 15:05:14 | 32.7  | 31.4  | 32.8  | 33.6  | 63.0  | 232.1  | 0.04  | 4.6  | -78  | 15:05 |
| 6779 | 26/07/2026 15:00:31 | 32.7  | 31.3  | 32.9  | 33.5  | 63.0  | 231.5  | 0.04  | 4.5  | -78  | 15:00 |
| 6778 | 26/07/2026 14:55:48 | 32.7  | 31.3  | 32.7  | 33.5  | 63.1  | 231.0  | 0.04  | 4.6  | -78  | 14:55 |
| 6777 | 26/07/2026 14:51:05 | 32.7  | 31.3  | 32.5  | 33.5  | 62.9  | 228.7  | 0.04  | 4.6  | -77  | 14:51 |
| 6776 | 26/07/2026 14:46:22 | 32.6  | 31.2  | 32.5  | 33.6  | 62.9  | 226.2  | 0.04  | 4.6  | -76  | 14:46 |
| 6775 | 26/07/2026 14:41:38 | 32.6  | 31.2  | 32.9  | 33.4  | 62.8  | 227.9  | 0.04  | 4.6  | -76  | 14:41 |
| 6774 | 26/07/2026 14:36:55 | 32.5  | 31.2  | 32.9  | 33.2  | 62.9  | 231.8  | 0.04  | 4.6  | -79  | 14:36 |
| 6773 | 26/07/2026 14:32:11 | 32.4  | 31.1  | 32.5  | 33.3  | 63.0  | 232.6  | 0.04  | 4.6  | -78  | 14:32 |
| 6772 | 26/07/2026 14:27:28 | 32.4  | 31.1  | 32.0  | 33.3  | 63.1  | 232.8  | 0.04  | 4.6  | -77  | 14:27 |
| 6771 | 26/07/2026 14:22:44 | 32.3  | 31.1  | 31.9  | 33.1  | 63.0  | 233.5  | 0.04  | 4.6  | -77  | 14:22 |
| 6770 | 26/07/2026 14:18:01 | 32.3  | 31.1  | 32.0  | 33.2  | 62.9  | 232.5  | 0.04  | 4.6  | -77  | 14:18 |
| 6769 | 26/07/2026 14:13:18 | 32.3  | 31.1  | 32.2  | 33.1  | 62.9  | 233.1  | 0.04  | 4.6  | -77  | 14:13 |
| 6768 | 26/07/2026 14:08:35 | 32.3  | 31.0  | 32.0  | 33.1  | 63.0  | 233.3  | 0.04  | 4.6  | -78  | 14:08 |
| 6767 | 26/07/2026 14:03:52 | 32.2  | 31.0  | 31.9  | 33.1  | 62.9  | 231.0  | 0.04  | 4.6  | -78  | 14:03 |
| 6766 | 26/07/2026 13:59:09 | 32.3  | 31.0  | 31.9  | 33.3  | 63.0  | 232.8  | 0.04  | 4.6  | -77  | 13:59 |
| 6765 | 26/07/2026 13:54:26 | 32.3  | 31.0  | 31.5  | 33.0  | 62.7  | 229.8  | 0.04  | 4.6  | -78  | 13:54 |
| 6764 | 26/07/2026 13:49:43 | 32.3  | 30.9  | 31.4  | 33.1  | 62.7  | 232.8  | 0.04  | 4.6  | -76  | 13:49 |
| 6763 | 26/07/2026 13:45:00 | 32.4  | 30.9  | 31.6  | 33.1  | 62.7  | 230.6  | 0.04  | 4.6  | -79  | 13:45 |
| 6762 | 26/07/2026 13:40:16 | 32.4  | 30.9  | 31.8  | 33.1  | 62.8  | 229.8  | 0.04  | 4.6  | -78  | 13:40 |